Location: Quedlinburg
(51.7921°N, 11.1414°E)
Time: 07:22:35
(UTC+02:00)

SO-50 - Pass Details

Date: 14 March 2026
Orbit: 567 x 673 km, 64.6° (Epoch: 13 April)

Event Time Altitude Azimuth Distance (km) Brightness Sun altitude
Rises 22:22:24 0° 293° (WNW) 3,001 ? -34.3°
Reaches altitude 10° 22:25:25 10° 312° (NW) 2,101 ? -34.6°
Maximum altitude 22:28:41 18° 356° (N) 1,641 ? -34.9°
Enters shadow 22:29:23 17° 7° (N) 1,666 ? -34.9°
